DW3735 Weather Reports


Display with metric or nautical units.
time (UTC)temp
F
wind
direction
speed
MPH
gust
MPH
rain 1hr
in
rain 24hr
in
rain mn
in
humidity
%
barometer
mb
20260831083557 56 0.0 0.0 0.00 0.00 0.00 96 1020.0
20260831082517 56 0.0 0.0 0.00 0.00 0.00 96 1019.9
20260831081517 56 0.0 0.0 0.00 0.00 0.00 96 1019.9
20260831080517 56 0.0 0.0 0.00 0.00 0.00 96 1019.8
20260831075517 56 0.0 0.0 0.00 0.00 0.00 96 1019.8
20260831074517 56 0.0 0.0 0.00 0.00 0.00 95 1019.7
20260831073517 57 0.0 0.0 0.00 0.00 0.00 96 1019.7
20260831072538 57 0.0 0.0 0.00 0.00 0.00 96 1019.7
20260831071537 56 0.0 0.0 0.00 0.00 0.00 95 1019.6
20260831070517 57 0.0 0.0 0.00 0.00 0.00 96 1019.6
20260831065517 57 0.0 0.0 0.00 0.00 0.00 96 1019.6
20260831064518 57 0.0 0.0 0.00 0.00 0.00 96 1019.7
20260831063537 57 0.0 0.0 0.00 0.00 0.00 96 1019.7
20260831062516 57 0.0 0.0 0.00 0.00 0.00 96 1019.7
20260831061517 58 0.0 0.0 0.00 0.00 0.00 96 1019.8
20260831060517 58 0.0 0.0 0.00 0.00 0.00 95 1019.7
20260831055517 58 0.0 0.0 0.00 0.00 0.00 96 1019.6
20260831054517 58 0.0 0.0 0.00 0.00 0.00 96 1019.6
20260831053537 58 0.0 0.0 0.00 0.00 0.00 96 1019.6
20260831052517 58 0.0 0.0 0.00 0.00 0.00 95 1019.7
20260831051517 59 0.0 0.0 0.00 0.00 0.00 95 1019.7
20260831050517 59 0.0 0.0 0.00 0.00 0.00 96 1019.6
20260831045537 59 0.0 0.0 0.00 0.00 0.00 95 1019.7
20260831044517 59 0.0 0.0 0.00 0.01 0.00 95 1019.6
20260831043517 59 0.0 0.0 0.00 0.01 0.00 95 1019.6
20260831042538 59 0.0 0.0 0.00 0.01 0.00 95 1019.5
20260831041537 59 0.0 0.0 0.00 0.09 0.00 94 1019.5
20260831040517 60 0.0 0.0 0.00 0.12 0.00 95 1019.2
20260831035517 60 0.0 0.0 0.00 0.12 0.12 95 1019.0
20260831034537 60 0.0 0.0 0.00 0.13 0.12 93 1018.9
20260831033558 60 0.0 0.0 0.00 0.13 0.12 92 1018.9
20260831032538 61 0.0 0.0 0.00 0.16 0.12 92 1019.0
20260831031518 61 0.0 0.0 0.00 0.16 0.12 93 1018.9
20260831030517 61 0.0 0.0 0.00 0.17 0.12 93 1018.8
20260831025517 61 0.0 0.0 0.00 0.18 0.12 92 1018.7
20260831024537 61 0.0 0.0 0.00 0.22 0.12 92 1018.6
20260831023537 62 0.0 0.0 0.00 0.31 0.12 90 1018.5
20260831022518 62 0.0 0.0 0.00 0.31 0.12 90 1018.5
20260831021517 62 0.0 0.0 0.00 0.31 0.12 90 1018.3
20260831020517 63 0.0 0.0 0.00 0.39 0.12 90 1018.3
20260831015517 63 0.0 0.0 0.00 0.43 0.12 90 1018.2
20260831014517 63 0.0 0.0 0.00 0.44 0.12 89 1018.1
20260831013517 64 0.0 0.0 0.00 0.44 0.12 89 1018.0
20260831012517 64 0.0 0.0 0.00 0.46 0.12 88 1017.7
20260831011517 64 0.0 0.0 0.00 0.47 0.12 88 1017.6
20260831010517 64 0.0 0.0 0.00 0.48 0.12 87 1017.3
20260831005517 65 0.0 0.0 0.00 0.48 0.12 86 1017.4
20260831004518 65 0.0 0.0 0.00 0.48 0.12 85 1017.3
20260831003517 66 0.0 0.0 0.00 0.48 0.12 84 1017.2
20260831002517 66 0.0 0.0 0.00 0.49 0.12 84 1017.2
20260831001518 66 0.0 1.0 0.00 0.49 0.12 84 1016.9
20260831000537 67 0.0 0.0 0.00 0.54 0.12 81 1016.8
20260830235517 68 0.0 0.0 0.00 0.55 0.12 80 1016.8
20260830234517 68 0.0 0.0 0.00 0.55 0.12 79 1016.6
20260830233517 69 0.0 0.0 0.00 0.55 0.12 77 1016.4
20260830232517 70 0.0 0.0 0.00 0.55 0.12 76 1016.3
20260830231517 70 0.0 0.0 0.00 0.56 0.12 75 1016.1
20260830230517 71 0.0 0.0 0.00 0.57 0.12 73 1016.1
20260830225517 72 0.0 0.0 0.00 0.57 0.12 70 1016.0
20260830224517 72 0.0 0.0 0.00 0.57 0.12 69 1015.9
20260830223517 72 0.0 0.0 0.00 0.57 0.12 67 1016.0
20260830222538 73 0.0 0.0 0.00 0.57 0.12 70 1016.1
20260830221517 73 0.0 2.0 0.00 0.57 0.12 66 1016.0
20260830220517 73 315 1.0 2.0 0.00 0.57 0.12 65 1015.9
20260830215538 73 315 1.0 3.0 0.00 0.57 0.12 65 1015.7
20260830214537 73 0.0 3.0 0.00 0.57 0.12 67 1015.6
20260830213518 73 338 1.0 3.0 0.00 0.57 0.12 65 1015.6
20260830212517 73 0.0 2.0 0.00 0.57 0.12 68 1015.6
20260830211557 73 0.0 2.0 0.00 0.57 0.12 69 1015.6
20260830210517 73 315 1.0 4.0 0.00 0.57 0.12 68 1015.4
20260830205537 72 0.0 1.0 0.00 0.57 0.12 72 1015.4
20260830204517 72 0.0 1.0 0.00 0.57 0.12 72 1015.3
20260830203517 71 0.0 1.0 0.00 0.57 0.12 73 1015.4
20260830202518 71 0.0 0.0 0.00 0.57 0.12 72 1015.4
20260830201517 72 0.0 2.0 0.00 0.57 0.12 72 1015.5
20260830200517 72 0.0 0.0 0.00 0.57 0.12 77 1015.5
20260830195538 72 0.0 2.0 0.00 0.57 0.12 73 1015.4
20260830194517 72 315 1.0 2.0 0.00 0.57 0.12 73 1015.3
20260830193517 72 315 1.0 3.0 0.00 0.57 0.12 73 1015.3
20260830192517 73 0.0 3.0 0.00 0.57 0.12 74 1015.4
20260830191517 72 0.0 0.0 0.00 0.57 0.12 73 1015.4
20260830190517 72 0.0 3.0 0.00 0.57 0.12 72 1015.7
20260830185537 72 0.0 0.0 0.00 0.57 0.12 73 1015.7
20260830184518 72 0.0 0.0 0.00 0.57 0.12 75 1015.8
20260830183517 73 0.0 0.0 0.00 0.57 0.12 76 1015.8
20260830182518 73 0.0 0.0 0.00 0.57 0.12 75 1015.9
20260830181517 73 0.0 2.0 0.00 0.57 0.12 73 1015.9
20260830180517 73 0.0 2.0 0.00 0.57 0.12 78 1016.0
20260830175518 72 0.0 3.0 0.00 0.57 0.12 78 1016.0
20260830174558 72 0.0 2.0 0.00 0.57 0.12 81 1015.9
20260830173517 72 0.0 2.0 0.00 0.57 0.12 84 1016.0
20260830172517 71 0.0 1.0 0.00 0.57 0.12 84 1016.1
20260830171517 71 0.0 2.0 0.00 0.57 0.12 83 1016.2
20260830170517 71 0.0 2.0 0.00 0.57 0.12 82 1016.4
20260830165517 71 0.0 2.0 0.00 0.57 0.12 85 1016.5
20260830164517 71 0.0 0.0 0.00 0.57 0.12 86 1016.4
20260830163518 70 0.0 1.0 0.00 0.57 0.12 86 1016.5
20260830162517 71 0.0 0.0 0.00 0.57 0.12 87 1016.6
20260830161517 71 0.0 2.0 0.00 0.57 0.12 87 1016.5
20260830160517 70 0.0 1.0 0.00 0.57 0.12 89 1016.4
20260830155517 69 0.0 1.0 0.00 0.57 0.12 90 1016.5
20260830154537 68 0.0 0.0 0.00 0.57 0.12 91 1016.5
20260830153517 68 0.0 0.0 0.00 0.57 0.12 93 1016.5
20260830152517 67 0.0 0.0 0.00 0.57 0.12 92 1016.6
20260830151538 67 0.0 0.0 0.00 0.57 0.12 94 1016.6
20260830150537 66 0.0 0.0 0.00 0.57 0.12 94 1016.5
20260830145517 66 0.0 0.0 0.00 0.57 0.12 95 1016.7
20260830144517 66 0.0 0.0 0.00 0.57 0.12 95 1016.6
20260830143517 65 0.0 0.0 0.00 0.57 0.12 95 1016.6
20260830142518 65 0.0 0.0 0.00 0.57 0.12 95 1016.6
20260830141517 65 0.0 0.0 0.00 0.57 0.12 95 1016.7
20260830140517 65 0.0 0.0 0.00 0.57 0.12 95 1016.6
20260830135517 65 0.0 0.0 0.00 0.57 0.12 94 1016.6
20260830134517 65 0.0 0.0 0.00 0.57 0.12 95 1016.5
20260830133517 65 0.0 0.0 0.00 0.57 0.12 95 1016.5
20260830132538 65 0.0 0.0 0.00 0.57 0.12 95 1016.6
20260830131517 65 0.0 0.0 0.00 0.57 0.12 95 1016.6
20260830130517 65 0.0 0.0 0.00 0.57 0.12 95 1016.7
20260830125517 65 0.0 3.0 0.00 0.57 0.12 94 1016.7
20260830124538 65 0.0 0.0 0.00 0.57 0.12 95 1016.7
20260830123517 64 0.0 3.0 0.00 0.57 0.12 95 1016.7
20260830122517 64 0.0 0.0 0.00 0.57 0.12 96 1016.6
20260830121517 64 0.0 0.0 0.00 0.57 0.12 96 1016.6
20260830120517 63 0.0 0.0 0.00 0.57 0.12 97 1016.7
20260830115517 62 0.0 0.0 0.00 0.57 0.12 97 1016.7
20260830114517 62 0.0 0.0 0.00 0.57 0.12 97 1016.8
20260830113517 62 0.0 0.0 0.00 0.57 0.12 97 1016.8
20260830112517 62 0.0 0.0 0.00 0.57 0.12 97 1016.7
20260830111517 61 0.0 0.0 0.00 0.57 0.12 97 1016.5
20260830110517 61 0.0 0.0 0.00 0.57 0.12 97 1016.4
20260830105517 61 0.0 0.0 0.00 0.57 0.12 97 1016.3
20260830104539 61 0.0 0.0 0.00 0.57 0.12 97 1016.3
20260830103517 61 0.0 0.0 0.00 0.57 0.12 97 1016.2
20260830102517 61 0.0 0.0 0.00 0.57 0.12 97 1016.1
20260830101518 61 0.0 0.0 0.00 0.57 0.12 97 1016.1
20260830100517 61 0.0 0.0 0.00 0.57 0.12 97 1016.1
20260830095517 61 0.0 0.0 0.00 0.57 0.12 97 1016.2
20260830094538 61 0.0 0.0 0.00 0.57 0.12 97 1016.2
20260830093538 61 0.0 0.0 0.00 0.57 0.12 97 1016.2
20260830092517 61 0.0 0.0 0.00 0.57 0.12 97 1016.2
20260830091517 61 0.0 0.0 0.00 0.57 0.12 97 1016.3
20260830090517 61 0.0 0.0 0.00 0.57 0.12 96 1016.4
20260830085517 62 0.0 0.0 0.00 0.57 0.12 97 1016.3
20260830084538 62 0.0 1.0 0.00 0.57 0.12 97 1016.2